Volver al catálogo

BREEZE-M R/B

ActivoMEO
NORAD 40278·ROCKET BODY·🇷🇺 Russia

Lanzado Oct 21, 2014 desde Baikonur Cosmodrome

Loading…

Próximos Pases (próximas 24 horas)

TLE

ActualizadoSource: Space-Track

Época: Sep 14, 2026, 11:03 UTC

1 40278U 14064B   26257.46049537 -.00000138  00000-0  00000-0 0  9999
2 40278   9.5287  61.6886 0581720 220.0350 135.6591  0.95221888 41372

Sigue BREEZE-M R/B en tiempo real con AllMySat

Download on the App Store